| time (UTC) | temp F | wind direction | speed MPH | gust MPH | rain 1hr in | rain 24hr in | rain mn in | humidity % | barometer mb |
| 20260505020040 | 56 | 180 | 3.0 | 6.0 | 0.00 | 0.00 | 0.00 | 64 | 1010.6 |
| 20260505013015 | 57 | 157 | 3.0 | 5.0 | 0.00 | 0.00 | 0.00 | 63 | 1010.4 |
| 20260505010022 | 58 | 157 | 3.0 | 6.0 | 0.00 | 0.00 | 0.00 | 61 | 1010.1 |
| 20260505003022 | 60 | 180 | 2.0 | 4.0 | 0.00 | 0.00 | 0.00 | 55 | 1009.6 |
| 20260505000022 | 0 | 202 | 2.0 | 5.0 | 0.00 | 0.00 | 0.00 | 46 | |
| 20260504233025 | 0 | 202 | 2.0 | 4.0 | 0.00 | 0.00 | 0.00 | 43 | |
| 20260504230022 | 66 | 202 | 2.0 | 4.0 | 0.00 | 0.00 | 0.00 | 41 | 1008.4 |
| 20260504223016 | 67 | 180 | 2.0 | 5.0 | 0.00 | 0.00 | 0.00 | 39 | 1008.4 |
| 20260504220021 | 68 | 202 | 2.0 | 5.0 | 0.00 | 0.00 | 0.00 | 37 | 1008.7 |
| 20260504213016 | 69 | 225 | 2.0 | 6.0 | 0.00 | 0.00 | 0.00 | 36 | 1009.0 |
| 20260504210023 | 69 | 247 | 2.0 | 6.0 | 0.00 | 0.00 | 0.00 | 35 | 1009.1 |
| 20260504203020 | 71 | 247 | 2.0 | 7.0 | 0.00 | 0.00 | 0.00 | 33 | 1009.0 |
| 20260504200042 | 0 | 225 | 2.0 | 5.0 | 0.00 | 0.00 | 0.00 | 33 | |
| 20260504193021 | 0 | 202 | 2.0 | 6.0 | 0.00 | 0.00 | 0.00 | 32 | |
| 20260504190021 | 70 | 247 | 3.0 | 6.0 | 0.00 | 0.00 | 0.00 | 35 | 1009.7 |
| 20260504183021 | 69 | 247 | 3.0 | 7.0 | 0.00 | 0.00 | 0.00 | 36 | 1010.0 |
| 20260504180021 | 69 | 225 | 2.0 | 6.0 | 0.00 | 0.00 | 0.00 | 35 | 1010.4 |
| 20260504173042 | 67 | 247 | 3.0 | 11.0 | 0.00 | 0.00 | 0.00 | 36 | 1010.8 |
| 20260504050021 | 46 | 247 | 2.0 | 4.0 | 0.00 | 0.00 | 0.00 | 55 | 1012.7 |
| 20260504043016 | 46 | 247 | 1.0 | 3.0 | 0.00 | 0.00 | 0.00 | 54 | 1012.6 |
| 20260504040041 | 46 | 0.0 | 0.0 | 0.00 | 0.00 | 0.00 | 55 | 1012.3 | |
| 20260504033024 | 46 | 0.0 | 0.0 | 0.00 | 0.00 | 0.00 | 55 | ||
| 20260504030042 | 46 | 0.0 | 0.0 | 0.00 | 0.00 | 0.00 | 54 | ||
| 20260504023020 | 48 | 247 | 2.0 | 5.0 | 0.00 | 0.00 | 0.00 | 52 | 1012.4 |